Home > Weather > Fort Wayne > Past weeks

Flag for USA Weather for the Past 2 Weeks in Fort Wayne, Indiana, USA

Now
51 °F

Light rain. Fog.


Feels Like: 47 °F
Forecast: 51 / 67 °F
Wind: 13 mph from East

Location: Fort Wayne International Airport

Current Time: Apr 30, 2016 at 9:03:23 PM

Latest Report: Apr 30, 2016 at 7:54 PM


Visibility: 3 mi

Pressure: 29.92 "Hg

Humidity: 89%

Dew Point: 48 °F

Location of Fort WayneLocation

Historic Weather in Fort Wayne — Graph

°F

Fort Wayne Temperature Yesterday

Maximum temperature yesterday: 54 °F (at 4:54 PM)
Minimum temperature yesterday: 45 °F (at 2:54 AM)
Average temperature yesterday: 49 °F

High & Low Weather Summary for the Past Weeks

 TemperatureHumidityPressure
High81 °F (Apr 18, 2:54 PM)100% (Apr 22, 6:54 AM)30.44 "Hg (Apr 22, 6:54 AM)
Low40 °F (Apr 16, 5:54 AM)22% (Apr 18, 4:54 PM)29.67 "Hg (Apr 26, 2:54 AM)
Average57 °F66%30.06 "Hg
* Reported Apr 15 7:54 PM — Apr 30 7:54 PM, Fort Wayne, Weather by CustomWeather, © 2016

Note: Actual official high and low records may vary slightly from our data, if they occured in-between our weather recording intervals... More about our weather records

Advertising

Fort Wayne Weather History for the Previous 24 Hours

Scroll right to see more
 ConditionsComfort  
Time TempWeatherWind HumidityBarometerVisibility
7:54 PM
Sat, Apr 30
51 °FLight rain. Fog.13 mph89%29.92 "Hg3 mi
6:54 PM50 °FLight rain. Low clouds.12 mph93%29.93 "Hg8 mi
5:54 PM50 °FLight rain. Low clouds.16 mph89%29.93 "Hg7 mi
4:54 PM50 °FRain. Fog.16 mph89%29.96 "Hg2 mi
3:54 PM49 °FLight rain. Fog.16 mph93%29.98 "Hg3 mi
2:59 PM48 °FRain. Fog.12 mph89%30.02 "Hg2 mi
1:54 PM48 °FLight rain. Fog.15 mph86%30.03 "Hg5 mi
12:54 PM47 °FLight rain. Fog.16 mph86%30.07 "Hg6 mi
11:54 AM47 °FLight rain. Overcast.12 mph80%30.09 "Hg7 mi
10:54 AM48 °FLight rain. More clouds than sun.13 mph77%30.09 "Hg10 mi
9:54 AM46 °FMostly cloudy.14 mph79%30.09 "Hg10 mi
8:54 AM44 °FPartly sunny.12 mph79%30.10 "Hg10 mi
7:54 AM43 °FPartly sunny.12 mph82%30.11 "Hg10 mi
6:54 AM42 °FPassing clouds.9 mph85%30.11 "Hg10 mi
5:54 AM42 °FPassing clouds.10 mph85%30.09 "Hg10 mi
4:54 AM42 °FPassing clouds.8 mph89%30.10 "Hg10 mi
3:54 AM43 °FPassing clouds.8 mph89%30.10 "Hg9 mi
2:54 AM44 °FPassing clouds.10 mph89%30.10 "Hg9 mi
1:54 AM46 °FPassing clouds.8 mph86%30.12 "Hg10 mi
12:54 AM47 °FPartly cloudy.10 mph83%30.13 "Hg10 mi
11:54 PM
Fri, Apr 29
48 °FPassing clouds.10 mph83%30.14 "Hg10 mi
10:54 PM50 °FOvercast.3 mph86%30.14 "Hg9 mi
9:54 PM51 °FOvercast.No wind80%30.14 "Hg9 mi
Weather by CustomWeather, © 2016

See weather overviewHow to use our weather pages